Home > Weather > Madison > Past weeks

Flag for USA Weather for the Past 2 Weeks in Madison, Wisconsin, USA

Now
46 °F

Sunny.


Feels Like: 41 °F
Forecast: 38 / 64 °F
Wind: 10 mph from North

Location: Dane County Regional-Truax Field

Current Time: May 5, 2016 at 10:06:33 AM

Latest Report: May 5, 2016 at 8:53 AM


Visibility: 10 mi

Pressure: 30.06 "Hg

Humidity: 66%

Dew Point: 35 °F

Location of MadisonLocation

Historic Weather in Madison — Graph

°F

Madison Temperature Yesterday

Maximum temperature yesterday: 59 °F (at 4:53 PM)
Minimum temperature yesterday: 41 °F (at 11:53 PM)
Average temperature yesterday: 50 °F

High & Low Weather Summary for the Past Weeks

 TemperatureHumidityPressure
High76 °F (Apr 25, 3:53 PM)97% (Apr 26, 6:53 AM)30.24 "Hg (Apr 26, 6:53 AM)
Low35 °F (Apr 23, 5:53 AM)28% (Apr 27, 2:53 PM)29.57 "Hg (Apr 25, 4:53 PM)
Average51 °F69%29.95 "Hg
* Reported Apr 20 8:53 AM — May 5 8:53 AM, Madison, Weather by CustomWeather, © 2016

Note: Actual official high and low records may vary slightly from our data, if they occured in-between our weather recording intervals... More about our weather records

Advertising

Madison Weather History for the Previous 24 Hours

Scroll right to see more
 ConditionsComfort  
Time TempWeatherWind HumidityBarometerVisibility
8:53 AM
Thu, May 5
46 °FSunny.10 mph66%30.06 "Hg10 mi
7:53 AM43 °FSunny.9 mph71%30.04 "Hg10 mi
6:53 AM38 °FPassing clouds.6 mph79%30.03 "Hg10 mi
5:53 AM35 °FPassing clouds.7 mph85%30.01 "Hg10 mi
4:53 AM36 °FClear.6 mph82%29.98 "Hg10 mi
3:53 AM37 °FClear.7 mph82%29.98 "Hg10 mi
2:53 AM37 °FClear.7 mph79%29.97 "Hg10 mi
1:53 AM40 °FClear.9 mph73%29.97 "Hg10 mi
12:53 AM41 °FClear.10 mph74%29.96 "Hg10 mi
11:53 PM
Wed, May 4
41 °FClear.7 mph80%29.96 "Hg10 mi
10:53 PM44 °FPassing clouds.7 mph73%29.94 "Hg10 mi
9:53 PM47 °FPassing clouds.5 mph61%29.92 "Hg10 mi
8:53 PM48 °FPassing clouds.9 mph59%29.90 "Hg10 mi
7:53 PM52 °FPassing clouds.16 mph50%29.88 "Hg10 mi
6:53 PM56 °FScattered clouds.15 mph40%29.84 "Hg10 mi
5:53 PM58 °FPartly sunny.16 mph33%29.82 "Hg10 mi
4:53 PM59 °FPartly sunny.15 mph35%29.82 "Hg10 mi
3:53 PM57 °FOvercast.16 mph39%29.81 "Hg10 mi
2:53 PM56 °FPartly sunny.15 mph40%29.82 "Hg10 mi
1:53 PM57 °FPartly sunny.16 mph44%29.82 "Hg10 mi
12:53 PM54 °FPartly sunny.14 mph49%29.82 "Hg10 mi
11:53 AM53 °FPartly sunny.18 mph52%29.83 "Hg10 mi
10:53 AM51 °FPartly sunny.17 mph61%29.82 "Hg10 mi
Weather by CustomWeather, © 2016

See weather overviewHow to use our weather pages